Starlink 31891

operational
NORAD ID: 59854 Int'l Des: 2024-097 Owner: SPXS Country: US Constellation: starlink
LEOCIRCULAR

关于 Starlink 31891

正在加载描述...

实时位置

正在加载3D地球...

即将过境

高度历史

Altitude vs Time

uPlot chart will show altitude changes over time

两行轨道根数

1 59854U 24097V 25350.12566615 .00007087 00000-0 26682-3 0 9999
2 59854 43.0000 26.5531 0002561 278.6392 81.4169 15.27578862 89134
Epoch: Dec 16, 2025 • Age: 29 hours

当前状态

高度 487.2 km
速度 7.63 km/s
星下点 39.87°N, 65.53°W
发射日期 May 23, 2024
运行时间 1.5 years
类型 internet

技术详情

分类 Payload
质量 730.00 kg
干质量 700.00 kg
总质量 730.00 kg
长度 0.30 m
直径 4.10 m
跨度 29.00 m
形状 Box + pan
制造商 SPXS
平台类型 Starlink V2M
阶段状态 In Orbit
所有者/国家 SPXS/US

大型星座

Loading constellations...